Home   Weather   New Zealand   Wellington   Past weeks
Flag for New Zealand

Past Weather in Wellington, New Zealand — October 2018

Currently: 59 °F. Partly sunny. (Weather station: Wellington Airport, New Zealand). See more current weather

October 2018 Weather in Wellington — Graph

°F

High & Low Weather Summary for October 2018

 TemperatureHumidityPressure
High68 °F (Oct 22, 1:00 pm)100% (Oct 1, 7:00 am)30.51 "Hg (Oct 1, 7:00 am)
Low41 °F (Oct 14, 4:00 am)24% (Oct 19, 2:00 pm)29.27 "Hg (Oct 30, 12:00 am)
Average55 °F76%30.03 "Hg
* Reported Oct 1 12:00 am — Oct 31 11:30 pm, Wellington. Weather by CustomWeather, © 2021

Note: Actual official high and low records may vary slightly from our data, if they occured in-between our weather recording intervals... More about our weather records

Wellington Weather History for October 1, 2018

Scroll right to see more
 ConditionsComfort  
Time TempWeatherWind HumidityBarometerVisibility
12:00 am
Mon, Oct 1
57 °FPassing clouds.24 mph72%30.18 "HgN/A
12:30 am57 °FPassing clouds.22 mph72%30.15 "HgN/A
1:00 am55 °FPassing clouds.26 mph82%30.15 "HgN/A
1:30 am55 °FPassing clouds.29 mph77%30.15 "HgN/A
2:00 am55 °FPassing clouds.30 mph82%30.12 "HgN/A
2:30 am55 °FPassing clouds.26 mph77%30.15 "HgN/A
3:00 am57 °FPassing clouds.23 mph72%30.15 "HgN/A
3:30 am55 °FOvercast.22 mph77%30.15 "HgN/A
4:00 am55 °FPassing clouds.22 mph77%30.12 "HgN/A
4:30 am55 °FOvercast.22 mph77%30.15 "HgN/A
5:00 am55 °FOvercast.23 mph82%30.12 "HgN/A
5:30 am55 °FOvercast.23 mph82%30.12 "HgN/A
6:00 am55 °FDrizzle. Overcast.26 mph82%30.12 "Hg3 mi
6:30 am54 °FLight rain. Mostly cloudy.23 mph88%30.12 "Hg3 mi
7:00 am52 °FLight rain. Partly sunny.22 mph100%30.12 "Hg3 mi
7:30 am52 °FLight rain. Partly sunny.21 mph94%30.12 "Hg4 mi
8:00 am52 °FLight rain. Overcast.20 mph94%30.12 "Hg3 mi
8:30 am54 °FLight rain. Low clouds.17 mph94%30.15 "Hg2 mi
9:00 am54 °FLight rain. Mostly cloudy.18 mph94%30.15 "Hg2 mi
9:30 am54 °FLight rain. Overcast.20 mph94%30.15 "Hg4 mi
10:00 am54 °FLight rain. Mostly cloudy.18 mph94%30.15 "Hg3 mi
10:30 am54 °FLight rain. Partly sunny.21 mph94%30.15 "HgN/A
11:00 am55 °FLight rain. Partly sunny.21 mph88%30.15 "Hg4 mi
11:30 am55 °FLight rain. Overcast.16 mph94%30.15 "Hg6 mi
12:00 pm54 °FLight rain. Partly sunny.16 mph100%30.15 "Hg2 mi
12:30 pm55 °FDrizzle. Broken clouds.14 mph94%30.15 "Hg2 mi
1:00 pm57 °FMostly cloudy.15 mph88%30.12 "HgN/A
1:30 pm59 °FScattered clouds.16 mph72%30.12 "HgN/A
2:00 pm59 °FScattered clouds.16 mph68%30.12 "HgN/A
2:30 pm59 °FPartly sunny.14 mph72%30.12 "HgN/A
3:00 pm59 °FPassing clouds.15 mph68%30.12 "HgN/A
3:30 pm59 °FPassing clouds.18 mph63%30.12 "HgN/A
4:00 pm59 °FPassing clouds.23 mph68%30.12 "HgN/A
4:30 pm57 °FPassing clouds.25 mph67%30.09 "HgN/A
5:00 pm57 °FScattered clouds.23 mph72%30.12 "HgN/A
5:30 pm57 °FScattered clouds.21 mph67%30.12 "HgN/A
6:00 pm57 °FScattered clouds.20 mph67%30.09 "HgN/A
6:30 pm55 °FScattered clouds.22 mph72%30.12 "HgN/A
7:00 pm55 °FPartly sunny.21 mph72%30.12 "HgN/A
7:30 pm55 °FPassing clouds.22 mph77%30.12 "HgN/A
8:00 pm55 °FPassing clouds.21 mph77%30.12 "HgN/A
8:30 pm55 °FPassing clouds.20 mph77%30.15 "HgN/A
9:00 pm55 °FPassing clouds.22 mph77%30.12 "HgN/A
9:30 pm55 °FPassing clouds.18 mph77%30.15 "HgN/A
10:00 pm55 °FPassing clouds.16 mph72%30.12 "HgN/A
10:30 pm55 °FPassing clouds.12 mph72%30.12 "HgN/A
11:00 pm55 °FPassing clouds.7 mph72%30.15 "HgN/A
11:30 pm54 °FPassing clouds.16 mph77%30.12 "HgN/A
Weather by CustomWeather, © 2021

See weather overview